FW0475 Weather Reports


Display with metric or nautical units.
time (UTC)temp
F
wind
direction
speed
MPH
gust
MPH
rain 1hr
in
rain 24hr
in
rain mn
in
humidity
%
barometer
mb
20260905171346 70 71 1.0 3.0 0.00 0.00 0.00 84 1018.0
20260905170825 70 55 0.0 2.0 0.00 0.00 0.00 84 1018.0
20260905170334 69 61 1.0 2.0 0.00 0.00 0.00 84 1018.1
20260905165815 69 70 1.0 3.0 0.00 0.00 0.00 84 1018.1
20260905165325 69 76 1.0 3.0 0.00 0.00 0.00 84 1018.1
20260905164825 69 78 1.0 3.0 0.00 0.00 0.00 84 1018.1
20260905164329 69 79 1.0 3.0 0.00 0.00 0.00 84 1018.1
20260905163833 69 360 1.0 3.0 0.00 0.00 0.00 84 1018.1
20260905163315 69 360 0.0 2.0 0.00 0.00 0.00 84 1018.1
20260905162817 69 257 1.0 2.0 0.00 0.00 0.00 84 1018.1
20260905162327 69 360 0.0 2.0 0.00 0.00 0.00 84 1018.0
20260905161828 69 330 0.0 2.0 0.00 0.00 0.00 84 1017.8
20260905161330 69 360 0.0 2.0 0.00 0.00 0.00 84 1017.8
20260905160811 69 329 1.0 3.0 0.00 0.01 0.00 84 1017.7
20260905160319 69 69 1.0 3.0 0.00 0.01 0.00 84 1017.7
20260905155821 69 72 1.0 3.0 0.00 0.01 0.00 84 1017.8
20260905155351 69 72 1.0 3.0 0.00 0.01 0.00 84 1017.7
20260905154812 69 75 1.0 3.0 0.00 0.01 0.00 85 1017.6
20260905154314 69 68 1.0 2.0 0.00 0.01 0.00 85 1017.7
20260905153823 69 68 1.0 2.0 0.00 0.01 0.00 84 1017.7
20260905153325 68 68 1.0 3.0 0.00 0.01 0.00 85 1017.6
20260905152826 68 76 1.0 3.0 0.00 0.01 0.00 85 1017.6
20260905152335 68 68 1.0 3.0 0.00 0.01 0.00 85 1017.5
20260905151837 68 71 1.0 136.0 0.00 0.01 0.00 85 1017.4
20260905151346 68 76 1.0 136.0 0.00 0.01 0.00 85 1017.5
20260905150825 67 68 1.0 137.0 0.00 0.01 0.00 84 1017.4
20260905150334 67 48 11.0 137.0 0.00 0.01 0.00 84 1017.4
20260905145816 67 82 136.0 137.0 0.00 0.01 0.00 84 1017.5
20260905145318 67 67 136.0 137.0 0.00 0.01 0.00 84 1017.4
20260905144827 67 71 136.0 137.0 0.00 0.01 0.00 84 1017.3
20260905144329 67 74 137.0 137.0 0.00 0.01 0.00 84 1017.4
20260905143829 67 69 136.0 136.0 0.00 0.01 0.00 84 1017.4
20260905143311 67 71 136.0 137.0 0.00 0.01 0.00 84 1017.5
20260905142819 67 71 136.0 137.0 0.00 0.01 0.00 84 1017.3
20260905142321 67 339 136.0 137.0 0.00 0.01 0.00 84 1017.3
20260905141831 67 67 136.0 137.0 0.00 0.01 0.00 84 1017.2
20260905141313 67 75 137.0 137.0 0.00 0.01 0.00 84 1017.2
20260905140814 67 75 136.0 137.0 0.00 0.01 0.00 83 1017.1
20260905140316 67 69 136.0 136.0 0.00 0.01 0.00 83 1017.1
20260905135825 67 76 136.0 137.0 0.00 0.01 0.00 83 1017.2
20260905135326 67 76 137.0 136.0 0.00 0.01 0.00 83 1017.1
20260905134835 67 76 58.0 137.0 0.00 0.01 0.00 82 1017.0
20260905134317 68 71 1.0 2.0 0.00 0.01 0.00 82 1016.9
20260905133819 68 75 1.0 3.0 0.00 0.01 0.00 81 1017.0
20260905133321 68 76 1.0 3.0 0.00 0.01 0.00 81 1017.0
20260905132829 68 55 1.0 2.0 0.00 0.01 0.00 81 1017.1
20260905132310 69 57 0.0 3.0 0.00 0.01 0.00 81 1017.0
20260905131840 69 360 1.0 3.0 0.00 0.01 0.00 81 1016.9
20260905131341 69 70 1.0 3.0 0.00 0.01 0.00 81 1017.0
20260905130827 69 346 0.0 2.0 0.00 0.07 0.00 81 1016.8
20260905130329 69 40 1.0 2.0 0.00 0.07 0.00 81 1016.6
20260905125811 69 63 1.0 2.0 0.00 0.07 0.00 82 1016.6
20260905125320 69 46 0.0 3.0 0.00 0.07 0.00 82 1016.4
20260905124821 69 67 1.0 3.0 0.00 0.07 0.00 82 1016.4
20260905124324 69 79 1.0 3.0 0.00 0.07 0.00 82 1016.3
20260905123833 69 69 1.0 3.0 0.00 0.07 0.00 83 1016.4
20260905123314 69 78 1.0 3.0 0.00 0.07 0.00 83 1016.5
20260905122816 69 68 2.0 3.0 0.00 0.07 0.00 83 1016.4
20260905122318 69 72 1.0 3.0 0.00 0.07 0.00 83 1016.4
20260905121826 69 73 0.0 2.0 0.00 0.07 0.00 83 1016.3
20260905121329 69 75 1.0 3.0 0.00 0.07 0.00 83 1016.1
20260905120837 69 74 1.0 3.0 0.00 0.17 0.00 84 1016.1
20260905120318 69 75 1.0 3.0 0.00 0.17 0.00 84 1016.1
20260905115820 69 69 1.0 2.0 0.00 0.17 0.00 84 1016.0
20260905115322 69 74 1.0 2.0 0.00 0.17 0.00 84 1015.9
20260905114811 69 73 1.0 2.0 0.00 0.17 0.00 84 1016.0
20260905114333 69 69 1.0 3.0 0.00 0.17 0.00 84 1015.9
20260905113821 69 65 0.0 3.0 0.00 0.17 0.00 84 1015.7
20260905113323 69 75 1.0 3.0 0.00 0.17 0.00 84 1015.6
20260905112824 70 76 1.0 3.0 0.00 0.17 0.00 84 1015.6
20260905112333 70 74 1.0 3.0 0.00 0.17 0.00 84 1015.6
20260905111814 70 73 1.0 3.0 0.00 0.17 0.00 84 1015.6
20260905111316 70 76 1.0 2.0 0.00 0.17 0.00 84 1015.5
20260905110824 70 72 1.0 2.0 0.00 0.26 0.00 84 1015.6
20260905110326 70 72 1.0 2.0 0.00 0.26 0.00 84 1015.4
20260905105812 70 72 1.0 2.0 0.00 0.26 0.00 84 1015.4
20260905105320 70 71 1.0 3.0 0.00 0.26 0.00 84 1015.5
20260905104822 70 70 1.0 3.0 0.00 0.26 0.00 84 1015.5
20260905104325 70 74 1.0 3.0 0.00 0.26 0.00 84 1015.6
20260905103833 70 71 0.0 2.0 0.00 0.26 0.00 84 1015.6
20260905103315 70 71 1.0 2.0 0.00 0.26 0.00 84 1015.7
20260905102816 70 73 0.0 1.0 0.00 0.26 0.00 84 1015.8
20260905102345 70 73 0.0 2.0 0.00 0.26 0.00 84 1015.7
20260905101825 70 73 1.0 2.0 0.00 0.26 0.00 84 1015.6
20260905101335 70 73 1.0 2.0 0.00 0.26 0.00 84 1015.6
20260905100836 70 71 1.0 2.0 0.00 0.31 0.00 84 1015.6
20260905100317 70 75 1.0 2.0 0.00 0.31 0.00 84 1015.6
20260905095825 70 74 1.0 2.0 0.00 0.31 0.00 84 1015.5
20260905095327 70 69 1.0 2.0 0.00 0.31 0.00 84 1015.5
20260905094836 70 67 1.0 2.0 0.00 0.31 0.00 84 1015.5
20260905094319 70 70 1.0 2.0 0.00 0.31 0.00 84 1015.5
20260905093821 70 72 0.0 3.0 0.00 0.31 0.00 85 1015.6
20260905093323 70 73 1.0 3.0 0.00 0.31 0.00 85 1015.5
20260905092832 70 72 1.0 2.0 0.00 0.31 0.00 85 1015.4
20260905092315 70 67 1.0 2.0 0.00 0.31 0.00 85 1015.3
20260905091817 70 70 1.0 2.0 0.00 0.31 0.00 85 1015.3
20260905091347 71 76 0.0 2.0 0.00 0.31 0.00 85 1015.1
20260905090827 70 76 1.0 2.0 0.00 0.32 0.00 85 1015.1
20260905090336 70 72 1.0 2.0 0.00 0.32 0.00 85 1015.2
20260905085818 71 69 1.0 4.0 0.00 0.32 0.00 85 1015.1
20260905085347 70 69 1.0 4.0 0.00 0.32 0.00 85 1015.1
20260905084848 71 71 1.0 4.0 0.00 0.32 0.00 85 1015.0
20260905084337 71 67 1.0 4.0 0.00 0.32 0.00 84 1015.0
20260905083817 71 68 1.0 4.0 0.00 0.32 0.00 84 1014.9
20260905083319 71 74 1.0 3.0 0.00 0.32 0.00 84 1014.9
20260905082828 71 77 1.0 3.0 0.00 0.32 0.00 84 1014.8
20260905082329 71 75 1.0 3.0 0.00 0.32 0.00 85 1014.8
20260905081831 71 76 2.0 3.0 0.00 0.32 0.00 85 1014.8
20260905081314 71 74 1.0 3.0 0.00 0.32 0.00 85 1014.8
20260905080822 71 75 1.0 59.0 0.00 0.32 0.00 85 1014.8
20260905080323 71 71 1.0 59.0 0.00 0.32 0.00 84 1014.8
20260905075835 72 71 1.0 3.0 0.00 0.32 0.00 84 1014.9
20260905075315 72 65 0.0 4.0 0.00 0.32 0.00 84 1015.1
20260905074843 72 71 2.0 4.0 0.00 0.32 0.00 84 1015.1
20260905074325 72 65 1.0 3.0 0.00 0.32 0.00 84 1015.3
20260905073823 72 67 1.0 135.0 0.00 0.32 0.00 84 1015.4
20260905073332 72 63 0.0 135.0 0.00 0.32 0.00 84 1015.4
20260905072812 72 51 134.0 135.0 0.00 0.32 0.00 84 1015.5
20260905072314 72 53 3.0 104.0 0.00 0.32 0.00 84 1015.5
20260905071823 72 38 0.0 3.0 0.00 0.32 0.00 84 1015.6
20260905071326 72 35 1.0 3.0 0.00 0.32 0.00 84 1015.5
20260905070827 72 36 1.0 2.0 0.00 0.32 0.00 84 1015.4
20260905070336 72 30 0.0 3.0 0.00 0.32 0.00 84 1015.4
20260905065817 72 30 1.0 3.0 0.00 0.32 0.00 84 1015.4
20260905065346 73 351 0.0 2.0 0.00 0.32 0.00 84 1015.4
20260905064827 73 344 1.0 2.0 0.00 0.32 0.00 84 1015.4
20260905064329 73 321 0.0 0.0 0.00 0.32 0.00 84 1015.6
20260905063837 72 360 0.0 1.0 0.00 0.32 0.00 84 1015.4
20260905063319 72 320 0.0 2.0 0.00 0.32 0.00 84 1015.4
20260905062847 72 360 0.0 2.0 0.00 0.32 0.00 84 1015.4
20260905062328 72 321 0.0 1.0 0.00 0.32 0.00 84 1015.3
20260905061830 72 324 0.0 2.0 0.00 0.32 0.00 84 1015.2
20260905061313 72 323 0.0 2.0 0.00 0.32 0.00 84 1015.2
20260905060821 72 40 0.0 1.0 0.00 0.32 0.00 84 1015.3
20260905060323 72 40 0.0 2.0 0.00 0.32 0.00 84 1015.4
20260905055852 72 49 0.0 2.0 0.00 0.32 0.00 84 1015.2
20260905055333 72 49 0.0 2.0 0.00 0.32 0.00 84 1015.0
20260905054821 73 78 0.0 1.0 0.00 0.32 0.00 84 1014.9
20260905054324 73 78 0.0 2.0 0.00 0.32 0.00 84 1015.1
20260905053834 73 79 0.0 2.0 0.00 0.32 0.00 84 1015.1
20260905053313 73 79 0.0 2.0 0.00 0.32 0.00 84 1015.2
20260905052815 73 79 1.0 2.0 0.00 0.32 0.00 84 1015.2
20260905052324 73 77 0.0 1.0 0.00 0.32 0.00 84 1015.3
20260905051826 73 86 0.0 1.0 0.00 0.32 0.00 84 1015.1
20260905051356 73 86 0.0 1.0 0.00 0.32 0.00 84 1014.9
20260905050816 73 86 0.0 1.0 0.00 0.32 0.00 84 1015.0
20260905050318 73 86 0.0 1.0 0.00 0.32 0.00 84 1014.9
20260905045827 73 84 0.0 1.0 0.00 0.32 0.00 84 1015.0
20260905045329 73 84 1.0 1.0 0.00 0.32 0.00 84 1015.0
20260905044830 73 86 0.0 1.0 0.00 0.32 0.00 84 1014.9
20260905044314 73 84 0.0 2.0 0.00 0.32 0.00 84 1014.9
20260905043823 73 86 1.0 2.0 0.00 0.32 0.00 84 1015.0
20260905043350 73 86 0.0 0.0 0.00 0.32 0.00 84 1015.2
20260905042831 73 84 0.0 1.0 0.00 0.32 0.00 84 1015.3
20260905042313 73 87 0.0 1.0 0.00 0.32 0.00 84 1015.2
20260905041843 73 86 0.0 1.0 0.00 0.32 0.00 84 1015.2
20260905041344 73 86 0.0 1.0 0.00 0.32 0.00 84 1015.0
20260905040833 73 86 0.0 1.0 0.00 0.32 0.32 84 1015.0
20260905040314 73 86 0.0 1.0 0.00 0.32 0.32 84 1014.9
20260905035844 73 84 0.0 1.0 0.00 0.32 0.32 84 1015.1
20260905035326 73 84 0.0 1.0 0.00 0.32 0.32 84 1015.2
20260905034835 73 84 1.0 1.0 0.00 0.32 0.32 84 1015.3
20260905034337 73 85 0.0 1.0 0.00 0.32 0.32 84 1015.3
20260905033841 73 84 0.0 1.0 0.00 0.32 0.32 84 1015.4
20260905033322 73 84 0.0 1.0 0.00 0.32 0.32 84 1015.5
20260905032851 73 85 0.0 1.0 0.00 0.32 0.32 84 1015.6
20260905032312 73 86 0.0 1.0 0.00 0.32 0.32 84 1015.6
20260905031821 73 86 0.0 1.0 0.00 0.32 0.32 84 1015.6
20260905031323 73 85 0.0 1.0 0.00 0.32 0.32 84 1015.6
20260905030831 73 84 0.0 2.0 0.00 0.32 0.32 84 1015.6
20260905030313 73 86 0.0 3.0 0.00 0.32 0.32 84 1015.6
20260905025815 73 85 1.0 3.0 0.00 0.32 0.32 84 1015.6
20260905025314 73 96 0.0 1.0 0.00 0.32 0.32 84 1015.6
20260905024844 73 95 0.0 1.0 0.00 0.32 0.32 84 1015.6
20260905024332 73 96 0.0 1.0 0.00 0.32 0.32 84 1015.8
20260905023813 73 95 0.0 1.0 0.00 0.32 0.32 84 1015.8
20260905023315 73 97 0.0 2.0 0.00 0.32 0.32 84 1016.0
20260905022817 73 98 1.0 2.0 0.00 0.32 0.32 84 1015.9
20260905022323 73 95 0.0 1.0 0.00 0.32 0.32 84 1016.0
20260905021825 73 96 0.0 1.0 0.00 0.32 0.32 84 1016.1
20260905021334 73 96 0.0 1.0 0.00 0.32 0.32 84 1016.1
20260905020819 73 95 0.0 1.0 0.00 0.32 0.32 84 1016.1
20260905020338 73 95 0.0 1.0 0.00 0.32 0.32 84 1015.9
20260905015846 73 95 0.0 1.0 0.00 0.32 0.32 84 1015.9
20260905015326 73 95 0.0 2.0 0.00 0.32 0.32 84 1016.1
20260905014835 73 98 1.0 2.0 0.00 0.32 0.32 84 1015.9
20260905014319 73 95 0.0 2.0 0.00 0.32 0.32 84 1016.0
20260905013820 73 95 1.0 1.0 0.00 0.32 0.32 84 1015.9
20260905013329 73 96 0.0 2.0 0.00 0.32 0.32 84 1016.0
20260905012852 73 97 1.0 2.0 0.00 0.32 0.32 84 1015.9
20260905012312 74 96 0.0 2.0 0.00 0.32 0.32 84 1015.8
20260905011842 74 95 0.0 1.0 0.00 0.32 0.32 84 1015.9
20260905011330 74 95 0.0 1.0 0.00 0.32 0.32 84 1015.8
20260905010831 74 95 0.0 1.0 0.00 0.32 0.32 84 1015.6
20260905010313 74 96 0.0 1.0 0.00 0.32 0.32 84 1015.4
20260905005816 74 95 0.0 1.0 0.00 0.32 0.32 84 1015.4
20260905005324 74 96 0.0 1.0 0.00 0.32 0.32 84 1015.4
20260905004826 74 97 0.0 1.0 0.00 0.32 0.32 84 1015.5
20260905004313 74 96 0.0 1.0 0.00 0.32 0.32 84 1015.4
20260905003821 74 96 0.0 1.0 0.00 0.32 0.32 84 1015.3
20260905003323 74 95 0.0 1.0 0.00 0.32 0.32 83 1015.3
20260905002832 74 95 0.0 1.0 0.00 0.32 0.32 84 1015.3
20260905002335 74 96 0.0 1.0 0.00 0.32 0.32 83 1015.2
20260905001817 74 96 0.0 1.0 0.00 0.32 0.32 83 1015.2
20260905001342 74 96 0.0 2.0 0.00 0.32 0.32 84 1015.1
20260905000822 74 96 1.0 2.0 0.00 0.32 0.32 83 1015.3
20260905000315 74 96 0.0 2.0 0.00 0.32 0.32 83 1015.2
20260904235816 74 96 1.0 2.0 0.00 0.32 0.32 83 1015.3
20260904235342 74 96 1.0 2.0 0.00 0.32 0.32 83 1015.3
20260904234823 75 96 1.0 2.0 0.00 0.32 0.32 83 1015.2
20260904234326 75 97 1.0 2.0 0.00 0.32 0.32 83 1015.2
20260904233834 75 96 0.0 2.0 0.00 0.32 0.32 83 1015.1
20260904233320 75 96 0.0 2.0 0.00 0.32 0.32 83 1015.0
20260904232822 75 96 1.0 1.0 0.00 0.32 0.32 83 1014.9
20260904232326 75 96 0.0 1.0 0.00 0.32 0.32 83 1014.9
20260904231812 75 95 0.0 1.0 0.00 0.32 0.32 83 1015.0
20260904231329 75 97 0.0 1.0 0.00 0.32 0.32 82 1015.0
20260904230813 75 96 1.0 2.0 0.00 0.32 0.32 82 1015.0
20260904230315 76 96 1.0 2.0 0.00 0.32 0.32 82 1014.9
20260904225823 76 96 2.0 2.0 0.00 0.32 0.32 82 1015.1
20260904225325 75 95 1.0 2.0 0.00 0.32 0.32 82 1015.0
20260904224827 76 96 1.0 2.0 0.00 0.32 0.32 82 1015.1
20260904224337 75 96 0.0 2.0 0.00 0.32 0.32 82 1015.1
20260904223838 75 96 1.0 2.0 0.00 0.32 0.32 82 1015.1
20260904223325 75 224 1.0 3.0 0.00 0.32 0.32 82 1015.1
20260904222827 75 223 1.0 3.0 0.00 0.32 0.32 82 1015.1
20260904222330 75 211 2.0 3.0 0.00 0.32 0.32 82 1015.1
20260904221815 75 220 0.0 2.0 0.00 0.32 0.32 83 1015.0
20260904221318 74 221 0.0 3.0 0.00 0.32 0.32 83 1014.9
20260904220826 74 221 1.0 4.0 0.00 0.32 0.32 83 1015.0
20260904220328 74 217 2.0 5.0 0.00 0.32 0.32 82 1014.9
20260904215830 74 221 3.0 5.0 0.00 0.32 0.32 82 1014.9
20260904215312 74 229 2.0 4.0 0.00 0.32 0.32 82 1014.9
20260904214821 74 222 3.0 4.0 0.00 0.32 0.32 82 1014.9
20260904214323 75 212 2.0 4.0 0.00 0.32 0.32 81 1014.8
20260904213831 75 215 3.0 5.0 0.00 0.32 0.32 81 1014.8
20260904213313 75 238 3.0 5.0 0.00 0.32 0.32 80 1014.7
20260904212815 76 221 2.0 4.0 0.00 0.32 0.32 79 1014.6
20260904212317 77 211 1.0 3.0 0.00 0.32 0.32 79 1014.6
20260904211826 78 229 2.0 4.0 0.00 0.32 0.32 77 1014.6
20260904211329 79 217 2.0 4.0 0.00 0.32 0.32 76 1014.7
20260904210837 79 215 1.0 4.0 0.00 0.32 0.32 76 1014.7
20260904210319 79 245 1.0 2.0 0.00 0.32 0.32 77 1014.8
20260904205821 79 292 1.0 2.0 0.00 0.32 0.32 79 1014.8
20260904205323 78 61 1.0 2.0 0.00 0.32 0.32 79 1014.8
20260904204832 78 70 0.0 2.0 0.00 0.32 0.32 80 1015.0
20260904204314 77 71 1.0 3.0 0.00 0.32 0.32 80 1015.1
20260904203815 77 212 2.0 4.0 0.00 0.32 0.32 80 1015.1
20260904203324 76 216 1.0 4.0 0.00 0.32 0.32 81 1015.3
20260904202825 76 204 1.0 4.0 0.00 0.32 0.32 81 1015.4
20260904202328 75 221 2.0 5.0 0.00 0.32 0.32 80 1015.3
20260904201836 75 212 3.0 5.0 0.00 0.32 0.32 80 1015.3
20260904201339 76 210 2.0 3.0 0.00 0.32 0.32 80 1015.3
20260904200826 76 205 1.0 3.0 0.00 0.32 0.32 81 1015.4
20260904200348 76 205 2.0 4.0 0.00 0.32 0.32 81 1015.3
20260904195836 75 219 1.0 4.0 0.00 0.32 0.32 81 1015.6
20260904195317 75 230 1.0 3.0 0.00 0.32 0.32 81 1015.7
20260904194818 75 251 1.0 4.0 0.00 0.32 0.32 82 1015.8
20260904194348 75 286 2.0 4.0 0.00 0.32 0.32 81 1015.9
20260904193834 75 196 1.0 3.0 0.00 0.32 0.32 82 1015.8
20260904193317 75 211 2.0 4.0 0.00 0.32 0.32 82 1015.9
20260904192838 75 188 1.0 4.0 0.00 0.32 0.32 83 1015.9
20260904192326 74 213 2.0 4.0 0.00 0.32 0.32 83 1016.0
20260904191828 74 255 1.0 3.0 0.00 0.32 0.32 84 1016.0
20260904191337 74 216 1.0 3.0 0.00 0.32 0.32 85 1016.1
20260904190819 74 360 0.0 4.0 0.00 0.32 0.32 85 1016.1
20260904190321 74 273 1.0 4.0 0.00 0.32 0.32 85 1016.1
20260904185823 74 211 0.0 2.0 0.00 0.32 0.32 85 1016.0
20260904185332 73 296 1.0 4.0 0.00 0.32 0.32 85 1015.9
20260904184813 73 205 1.0 4.0 0.00 0.32 0.32 85 1015.9
20260904184317 73 229 2.0 3.0 0.00 0.32 0.32 85 1015.8
20260904183825 74 251 0.0 3.0 0.00 0.32 0.32 86 1015.6
20260904183327 74 252 1.0 3.0 0.00 0.32 0.32 86 1015.7
20260904182828 73 297 0.0 135.0 0.00 0.32 0.32 86 1015.8
20260904182334 73 319 1.0 135.0 0.00 0.32 0.32 86 1015.6
20260904181816 73 59 135.0 136.0 0.00 0.32 0.32 86 1015.6
20260904181319 73 57 135.0 136.0 0.00 0.32 0.32 86 1015.5
20260904180826 73 360 136.0 137.0 0.00 0.32 0.32 87 1015.6
20260904180356 73 317 136.0 137.0 0.00 0.32 0.32 86 1015.6
20260904175817 73 24 136.0 137.0 0.00 0.32 0.32 86 1015.7
20260904175320 73 360 137.0 139.0 0.00 0.32 0.32 86 1015.8
20260904174828 72 234 134.0 136.0 0.00 0.32 0.32 86 1015.8
20260904174353 72 289 137.0 139.0 0.00 0.32 0.32 86 1015.8
20260904173812 72 360 137.0 139.0 0.00 0.32 0.32 86 1015.8
20260904173321 72 360 137.0 139.0 0.00 0.32 0.32 86 1015.9
20260904172824 72 360 137.0 138.0 0.00 0.32 0.32 87 1015.9
20260904172334 72 225 134.0 136.0 0.00 0.32 0.32 86 1015.9
20260904171815 72 22 136.0 137.0 0.00 0.32 0.32 86 1015.8